User: anonymous   Login
Location: Saddleback Butte
(34.6776°N, 117.8050°W)
Time: 22:35:34
(UTC-08:00)
Language:

Cosmos 1862 Rocket - Orbit

View from above orbital plane
View from above orbital plane
View from above satellite
View from above satellite

Ground track
Ground track

The orbit data is extracted from the following two-line orbital elements,

1 18153U 87055B   17348.40386584  .00000072  00000-0  58770-5 0  9995
2 18153  82.5003 295.2768 0020846 206.2527 153.7634 14.83206114645072
Epoch (UTC): 14 December 2017 09:41:34
Eccentricity: 0.0020846
inclination: 82.5003°
perigee height: 604 km
apogee height: 634 km
right ascension of ascending node: 295.2768°
argument of perigee: 206.2527°
revolutions per day: 14.83206114
mean anomaly at epoch: 153.7634°
orbit number at epoch: 64507

The dashed part of the orbit path shows where the satellite is in the earth's shadow,  

DLR